This is the latest recevied weather packets stored in our database for station/object N6RDS. If no packets are shown the sender has not sent any weather packets the latest 10 day(s).
| Time | Temp. | Humidity | Pressure | Rain* | Wind** | Luminosity | Snow |
|---|---|---|---|---|---|---|---|
| 1777939232 | 12.78° C | 41% | 1020.5 hPa | 0 mm | - | 177 W/m² | - |
| 1777938928 | 13.33° C | 40% | 1020.8 hPa | 0 mm | - | 104 W/m² | - |
| 1777938625 | 13.33° C | 40% | 1020.7 hPa | 0 mm | - | 108 W/m² | - |
| 1777938322 | 13.33° C | 39% | 1020.7 hPa | 0 mm | - | 164 W/m² | - |
| 1777938019 | 13.89° C | 38% | 1020.8 hPa | 0 mm | - | 157 W/m² | - |
| 1777937714 | 13.33° C | 38% | 1020.8 hPa | 0 mm | - | 170 W/m² | - |
| 1777937412 | 13.89° C | 37% | 1020.7 hPa | 0 mm | - | 143 W/m² | - |
| 1777937108 | 13.89° C | 38% | 1020.6 hPa | 0 mm | - | 134 W/m² | - |
| 1777936806 | 14.44° C | 36% | 1020.8 hPa | 0 mm | - | 169 W/m² | - |
| 1777936502 | 13.89° C | 36% | 1020.8 hPa | 0 mm | - | 290 W/m² | - |
| 1777936198 | 14.44° C | 35% | 1021.2 hPa | 0 mm | - | 234 W/m² | - |
| 1777935895 | 14.44° C | 35% | 1020.6 hPa | 0 mm | - | 233 W/m² | - |
| 1777935594 | 14.44° C | 34% | 1021 hPa | 0 mm | - | 226 W/m² | - |
| 1777935290 | 13.89° C | 35% | 1021.1 hPa | 0 mm | - | 183 W/m² | - |
| 1777934988 | 13.89° C | 34% | 1021 hPa | 0 mm | - | 195 W/m² | - |
| 1777934684 | 14.44° C | 34% | 1021.1 hPa | 0 mm | - | 195 W/m² | - |
| 1777934381 | 15° C | 33% | 1021.1 hPa | 0 mm | - | 159 W/m² | - |
| 1777934077 | 14.44° C | 33% | 1021 hPa | 0 mm | - | 333 W/m² | - |
| 1777933773 | 15° C | 34% | 1021 hPa | 0 mm | - | 225 W/m² | - |
| 1777933471 | 15.56° C | 33% | 1021 hPa | 0 mm | - | 197 W/m² | - |
| 1777933169 | 15.56° C | 33% | 1021.1 hPa | 0 mm | - | 350 W/m² | - |
| 1777932865 | 15.56° C | 34% | 1021 hPa | 0 mm | - | 332 W/m² | - |
| 1777932562 | 15° C | 35% | 1021.2 hPa | 0 mm | - | 233 W/m² | - |
| 1777932259 | 15.56° C | 33% | 1021.2 hPa | 0 mm | - | 231 W/m² | - |
| 1777931956 | 15° C | 31% | 1021.3 hPa | 0 mm | - | 339 W/m² | - |
* Rain latest hour (hover to see other rain measurements)
** Current wind speed in m/s (hover to see current wind gust speed)